,

(GMT )
Konstanz

Weather History for EDTZ - November, 2012

Change the Weather History Date:

Friday, November 2, 2012

  Actual Average Record
Temperature  
Mean Temperature 48 °F -  
Max Temperature 55 °F - - ()
Min Temperature 41 °F - - ()
Degree Days  
Heating Degree Days 17    
Moisture  
Dew Point 42 °F    
Average Humidity 79    
Maximum Humidity 93    
Minimum Humidity 49    
Precipitation  
Precipitation 0.01 in - - ()
Sea Level Pressure  
Sea Level Pressure 29.68 in    
Wind  
Wind Speed 6 mph ()    
Max Wind Speed 20 mph    
Max Gust Speed -    
Visibility 13.3 miles    
Events Rain    
T = Trace of Precipitation, MM = Missing Value Source: Averaged Metar Reports

Daily Weather History Graph

Daily Weather History Graph

Search for Another Location

Airport or City:

Trip Planner

Search our weather history database for the weather conditions in past years. The results will help you decide how hot, cold, wet, or windy it might be!

Date:

Astronomy

Nov. 02, 2012 Rise Set
Actual Time 7:09 AM CET 5:03 PM CET
Civil Twilight 6:36 AM CET 5:36 PM CET
Nautical Twilight 6:00 AM CET 6:12 PM CET
Astronomical Twilight 5:24 AM CET 6:48 PM CET
Moon 7:27 PM CET (11/2) 10:26 AM CET (11/2)
Length of Visible Light 10h 59m
Length of Day
9h 54m
Waning Gibbous, 89% of the Moon is Illuminated
Nov 2
Waning Gibbous
Nov 7
Last Quarter
Nov 13
New
Nov 20
First Quarter
Nov 28
Full

Hourly Weather History & Observations

Time (CET) Temp. Dew Point Humidity Pressure Visibility Wind Dir Wind Speed Gust Speed Precip Events Conditions
12:00 AM 43 °F 40 °F 83% 29.55 in 10 mi West 20.1 mph - - Rain Rain
1:00 AM 42 °F 40 °F 91% 29.57 in 22 mi SW 8.9 mph - - Rain Light Rain
2:00 AM 42 °F 40 °F 92% 29.60 in 22 mi SW 4.5 mph - -   Partly Cloudy
3:00 AM 42 °F 41 °F 93% 29.63 in 22 mi NW 2.2 mph - -   Partly Cloudy
4:00 AM 43 °F 40 °F 87% 29.65 in 25 mi WSW 4.5 mph - -   Scattered Clouds
5:00 AM 43 °F 41 °F 88% 29.67 in 25 mi West 4.5 mph - -   Overcast
6:00 AM 42 °F 40 °F 91% 29.67 in 25 mi West 4.5 mph - -   Mostly Cloudy
7:00 AM 42 °F 39 °F 87% 29.69 in 16 mi West 6.7 mph - - Rain Light Rain
8:00 AM 42 °F 40 °F 88% 29.72 in 12 mi SSW 4.5 mph - - Rain Light Rain
9:00 AM 43 °F 39 °F 81% 29.75 in 19 mi SSW 8.9 mph - - Rain Light Rain
10:00 AM 44 °F 40 °F 82% 29.76 in 25 mi WSW 2.2 mph - - Rain Light Rain
11:00 AM 45 °F 41 °F 80% 29.77 in 31 mi South 2.2 mph - - Rain Light Rain
12:00 PM 50 °F 42 °F 67% 29.73 in 31 mi SE 4.5 mph - -   Mostly Cloudy
1:00 PM 50 °F 42 °F 64% 29.70 in 31 mi SSE 6.7 mph - -   Partly Cloudy
2:00 PM 55 °F 41 °F 49% 29.66 in 31 mi SSW 6.7 mph - -   Partly Cloudy
3:00 PM 53 °F 42 °F 57% 29.65 in 31 mi ESE 6.7 mph - -   Scattered Clouds
4:00 PM 51 °F 42 °F 62% 29.65 in 31 mi SSE 4.5 mph - -   Mostly Cloudy
5:00 PM 50 °F 43 °F 69% 29.63 in 37 mi SSE 4.5 mph - - Rain Light Rain Showers
6:00 PM 49 °F 44 °F 77% 29.65 in 28 mi SW 2.2 mph - - Rain Light Rain Showers
7:00 PM 49 °F 44 °F 77% 29.68 in 22 mi SSW 4.5 mph - - Rain Rain
8:00 PM 48 °F 44 °F 81% 29.69 in 22 mi NNW 4.5 mph - - Rain Light Rain
9:00 PM 49 °F 44 °F 76% 29.72 in 16 mi WNW 4.5 mph - - Rain Rain
10:00 PM 48 °F 46 °F 88% 29.74 in 11 mi SW 4.5 mph - - Rain Rain
11:00 PM 48 °F 46 °F 89% 29.74 in 9 mi SW 6.7 mph - - Rain Light Rain